Back to catalog

O3B FM5

AliveCommunicationsMEO
NORAD 39188·PAYLOAD·🇱🇺 Luxembourg

Launched Jun 25, 2013 from Guiana Space Centre

Loading…

Next Passes (next 24 hours)

TLE

FreshSource: CelesTrak SupGP

Epoch: Sep 13, 2026, 13:00 UTC

1 39188C 13031A   26256.54166667  .00000000  00000+0  00000+0 0  2563
2 39188   0.0824 318.4735 0002492 200.2757 111.5609  5.00115786    13

Track O3B FM5 in real time with AllMySat

Download on the App Store